Wind_Speed
8 8 8 7 6 5 5 4 4 4 4 4 4 4 4 4 4 3 3 4 5 8 10 12 15 17 19 21 23 25 26 28 30 31 33 34 35 36 37 38 39 40 41 41 42 42 42 42 42
13 13 12 11 10 9 8 8 8 8 7 6 6 5 5 4 4 5 6 8 10 13 15 17 19 21 24 26 28 29 31 33 34 35 37 38 40 41 42 43 44 45 46 47 47 48 48 48 48
16 15 14 13 13 12 11 10 10 9 9 7 6 5 4 4 6 8 11 13 15 17 19 21 23 25 27 29 31 32 34 36 37 39 40 42 44 45 46 48 49 50 51 52 53 53 54 54 54
17 16 15 14 13 12 12 11 10 9 8 6 4 4 5 8 10 12 15 17 19 21 23 24 26 28 30 32 34 36 38 40 41 43 45 47 48 50 51 53 54 55 56 57 58 59 59 60 60
17 16 15 15 14 13 12 11 9 7 5 4 5 6 8 12 14 16 19 20 22 23 25 27 29 31 33 36 38 40 42 45 47 49 51 52 54 56 57 59 60 61 62 63 64 65 65 65 65
17 16 15 14 12 11 9 8 6 4 5 7 9 11 13 15 17 19 21 22 24 25 27 29 32 35 37 40 42 45 47 49 51 53 55 57 59 61 63 64 66 67 68 69 70 71 71 71 71
15 14 12 11 9 8 6 5 5 7 8 11 13 14 16 18 20 21 23 24 25 27 29 32 35 38 41 44 46 49 51 53 55 57 59 61 64 66 68 69 71 73 74 75 76 77 77 77 77
11 10 8 6 5 4 5 6 8 10 12 13 15 16 18 19 21 22 23 25 27 30 33 36 39 42 45 48 51 53 55 57 59 61 64 66 68 71 73 75 77 79 80 82 83 83 83 83 84
6 4 3 4 5 6 8 10 11 13 14 15 16 18 19 20 22 23 25 27 30 34 37 41 44 47 50 53 55 56 58 61 63 66 68 71 74 76 78 81 83 85 87 88 89 90 90 90 90
2 3 5 7 9 10 11 12 14 15 16 17 18 19 20 22 23 26 28 31 34 38 41 45 48 51 53 55 57 59 62 65 67 70 73 76 79 82 84 87 90 92 93 94 95 96 96 95 95
6 7 9 11 12 13 14 15 15 16 17 18 19 21 22 24 26 28 31 34 38 41 45 48 50 53 55 57 59 62 65 68 71 74 77 80 84 87 91 94 96 97 98 98 98 98 98 98 97
10 11 13 14 15 15 16 16 16 17 18 20 21 22 24 26 29 31 34 38 41 44 47 50 52 54 56 59 62 65 68 72 75 78 82 86 90 94 98 100 101 101 100 99 97 96 95 94 94
12 13 14 15 16 16 16 17 17 18 19 21 23 24 26 29 31 34 37 41 44 46 49 51 54 56 58 61 65 68 72 75 78 82 86 91 95 99 102 102 101 100 97 95 93 91 89 88 88
13 14 14 15 15 16 16 17 18 19 21 22 25 26 29 31 34 37 40 43 46 48 50 52 54 57 60 64 67 71 74 77 81 86 91 95 99 100 100 98 95 92 89 87 86 85 84 83 83
13 13 14 14 15 15 16 17 19 21 22 24 26 28 30 33 36 38 41 44 46 48 50 53 55 59 62 66 70 73 76 80 85 90 94 97 98 97 94 90 87 85 84 83 82 81 80 78 77
13 13 13 14 14 15 17 18 20 22 24 26 28 30 32 35 37 40 42 44 46 49 51 53 57 61 65 68 72 74 78 83 87 92 94 95 94 90 87 84 82 82 81 80 78 75 73 71 70
12 13 13 14 15 17 19 20 21 24 26 28 29 32 34 36 38 40 42 44 46 49 51 55 59 63 67 70 73 76 80 85 89 92 93 91 87 84 81 80 80 80 77 75 73 72 70 69 67
12 13 14 15 17 18 20 22 23 25 27 28 30 32 34 36 38 40 42 45 47 50 53 56 61 65 68 71 74 78 82 86 90 91 89 85 82 80 78 79 78 76 74 74 74 75 74 73 71
12 13 15 16 18 19 20 23 24 25 27 28 30 31 34 36 39 41 43 45 48 51 54 58 62 66 68 71 75 79 83 87 89 88 85 81 79 77 77 76 75 73 75 77 78 76 74 73 73
13 14 15 16 18 19 20 22 24 25 26 28 29 31 34 37 39 42 44 47 49 52 56 60 64 67 69 72 76 80 83 86 87 84 81 78 77 76 75 74 73 75 78 76 71 68 65 63 65
13 14 15 16 17 19 20 21 23 24 26 27 29 32 35 38 40 43 45 48 50 53 57 61 64 67 69 73 77 80 84 86 84 80 77 76 75 75 74 74 74 77 77 71 65 61 58 55 53
12 14 15 17 18 19 20 21 24 25 27 29 31 33 36 39 41 43 46 49 52 54 58 61 65 67 70 73 77 81 83 83 81 77 75 74 74 73 73 73 75 77 73 66 61 58 54 49 43
12 14 15 17 18 19 21 23 25 27 29 31 33 36 38 40 42 44 47 50 52 55 58 62 65 68 71 74 77 81 82 81 78 75 73 73 72 72 72 73 75 74 68 61 57 53 48 43 36
11 13 14 17 19 20 22 24 27 29 31 34 37 39 41 42 44 46 48 51 53 56 59 63 66 68 71 74 78 80 81 79 75 73 72 71 70 70 71 72 73 70 63 57 52 48 44 39 32
9 12 14 17 19 21 23 26 28 31 33 37 40 43 44 46 46 48 49 52 54 57 60 63 66 68 71 75 78 80 79 77 73 71 70 70 68 68 69 71 71 67 60 52 47 42 39 35 30
8 11 14 17 19 20 24 27 30 32 36 39 42 45 48 49 50 50 51 53 55 58 61 64 66 69 71 75 77 79 78 75 72 70 69 69 68 68 68 70 70 65 57 48 42 36 33 30 26
8 11 14 16 18 21 25 27 31 34 38 41 44 47 50 53 53 53 54 55 57 59 62 65 67 69 71 74 77 78 76 73 71 69 69 68 67 67 68 70 70 65 55 46 39 32 28 24 21
8 11 14 17 21 23 26 29 32 35 38 42 45 49 52 55 57 57 57 57 58 60 62 65 67 69 71 74 76 77 75 72 69 68 67 67 66 66 67 69 69 66 56 45 37 30 25 21 17
10 12 15 18 22 26 28 31 33 35 39 42 46 50 53 57 59 61 60 60 60 61 63 65 67 68 71 74 76 76 74 71 68 67 66 66 65 65 66 68 69 67 58 47 37 30 25 20 16
11 14 16 19 22 24 27 31 34 36 40 43 46 50 54 58 61 63 63 62 61 62 63 65 67 68 71 73 75 75 73 70 68 66 65 65 64 65 66 67 68 68 60 49 39 32 26 21 16
Wind_Direction
110 113 113 112 112 115 124 129 127 121 110 100 85 72 63 56 44 33 20 358 340 329 324 321 318 314 311 307 304 302 300 298 296 294 292 290 288 286 284 283 281 279 278 276 275 273 272 270 268
103 103 105 106 107 111 113 114 114 110 108 103 97 87 74 58 31 5 346 337 330 326 322 318 315 311 309 306 304 301 299 298 296 294 293 292 290 288 286 284 282 281 279 277 275 273 272 270 268
100 100 104 106 109 112 114 111 110 110 106 100 94 80 52 15 352 340 335 331 327 323 319 316 313 310 308 306 304 303 301 300 298 296 295 293 291 290 288 286 284 282 280 278 276 274 272 270 268
97 100 103 107 111 111 110 107 104 103 98 87 66 31 3 346 337 334 331 327 324 321 318 316 313 311 309 308 306 305 304 302 300 299 297 295 293 291 289 287 286 284 282 280 278 276 274 271 269
96 99 103 107 108 107 105 101 96 88 72 44 13 351 340 335 333 331 328 324 321 319 317 315 313 312 311 311 309 308 306 304 303 301 299 298 296 294 291 289 287 285 283 281 279 277 274 272 270
101 101 104 104 103 99 94 86 73 47 16 357 347 340 335 331 329 327 324 322 320 318 317 315 314 313 313 311 310 308 306 305 303 302 300 299 297 295 293 291 289 287 285 283 281 279 276 273 271
102 101 101 96 91 83 69 49 20 355 344 338 335 332 329 326 324 322 321 320 318 316 315 314 314 313 312 311 309 308 307 305 304 303 301 300 298 296 294 293 291 289 287 284 282 280 277 274 271
102 99 93 83 67 43 16 356 342 335 330 329 328 326 324 322 320 320 319 317 316 316 316 316 315 314 313 312 311 310 308 307 305 304 302 301 299 297 295 294 292 290 288 286 283 280 277 275 272
95 88 49 16 355 344 339 333 328 326 323 323 323 322 321 320 319 319 318 318 317 318 319 318 317 316 315 314 313 311 310 308 307 305 304 302 300 298 297 295 293 291 289 287 285 282 279 276 272
26 347 336 332 328 326 324 322 320 319 319 319 320 321 320 319 319 319 319 318 319 320 319 319 318 317 316 315 314 312 311 309 308 306 305 303 302 300 298 297 295 293 291 290 287 285 281 278 274
317 316 317 317 317 317 316 316 315 316 316 318 319 320 320 320 320 320 320 319 320 319 319 319 318 317 316 315 314 313 312 310 309 307 306 305 303 302 300 299 297 296 294 292 289 286 283 280 276
307 310 312 313 314 314 314 314 314 315 316 318 320 320 320 320 320 320 320 320 319 319 319 319 318 317 316 315 315 314 313 311 310 309 308 306 305 304 302 301 299 297 295 293 290 287 283 279 276
309 312 313 314 314 314 315 315 316 317 319 320 320 320 320 320 321 320 320 320 320 320 320 319 318 317 316 315 315 314 314 312 311 310 309 308 307 305 304 302 300 298 295 292 289 286 282 279 275
317 318 319 319 319 318 318 319 319 320 322 321 321 320 320 321 321 320 320 320 320 320 320 319 318 317 317 316 316 315 315 314 313 312 311 309 308 306 304 303 301 298 296 293 290 286 283 279 275
329 329 329 328 327 326 324 324 324 323 323 322 321 321 321 321 321 320 320 320 320 320 319 319 318 318 317 317 317 317 317 316 315 314 312 310 309 308 307 305 303 301 298 295 292 289 285 280 276
340 339 338 337 334 332 329 328 327 325 324 323 322 322 322 322 321 321 321 320 320 319 319 319 319 319 319 319 319 319 319 318 317 315 313 312 311 311 310 308 307 304 302 299 295 291 285 280 275
348 346 345 343 340 335 331 329 329 326 325 324 324 324 324 323 322 321 321 320 320 319 320 320 320 321 321 321 321 321 320 320 318 316 315 315 315 314 313 312 310 309 306 302 297 292 286 280 274
352 351 348 346 343 338 332 330 332 329 327 327 326 326 324 323 322 322 321 320 320 320 321 322 322 323 323 323 323 323 322 321 320 318 318 318 318 317 316 316 314 312 309 305 300 294 287 281 274
355 354 352 348 344 340 335 333 336 334 331 330 329 327 325 324 323 322 321 321 322 322 322 323 324 324 325 325 325 325 324 322 321 321 321 321 321 321 320 319 318 315 313 309 304 297 290 282 274
359 357 355 351 348 346 343 340 341 340 338 335 333 330 327 324 323 323 323 323 324 324 324 325 325 326 327 327 327 327 326 324 324 324 324 324 324 324 324 323 322 320 318 315 310 305 298 289 278
4 3 1 360 359 357 354 350 350 348 345 341 337 333 328 326 325 325 325 325 326 326 326 327 327 328 329 329 329 328 328 327 327 327 327 327 328 327 327 327 326 325 325 322 319 315 309 299 286
11 12 11 8 8 8 5 3 360 357 353 348 343 338 334 331 330 329 328 328 328 328 328 328 329 330 330 331 331 331 330 330 330 330 330 331 331 331 331 331 330 331 330 328 327 325 321 313 300
22 22 20 17 15 12 11 9 7 4 360 355 350 345 341 337 334 332 331 330 330 330 330 331 331 332 332 333 333 333 333 332 332 333 333 334 334 334 335 335 335 335 334 333 333 334 333 329 319
34 30 26 24 22 19 16 14 12 8 4 0 357 352 347 342 339 336 334 333 333 333 333 333 334 334 334 335 335 335 335 335 335 336 336 337 337 338 338 339 339 339 338 337 338 340 343 344 339
39 34 30 28 25 23 17 16 14 9 6 4 1 357 353 348 344 340 338 337 336 335 335 335 336 336 336 337 337 337 337 337 337 338 339 340 341 341 342 343 343 343 341 339 340 344 349 353 354
31 29 28 28 24 20 18 16 13 10 7 5 2 359 356 353 348 344 341 340 339 338 337 337 337 338 338 338 339 339 339 339 339 340 342 343 343 344 345 347 347 346 344 341 341 344 349 355 360
15 18 20 19 17 14 14 11 9 8 7 4 1 359 358 355 352 348 345 343 341 340 339 339 339 340 340 340 341 341 341 341 342 343 344 345 346 347 348 350 351 350 347 343 341 341 345 351 355
357 2 4 6 7 8 7 6 5 4 2 2 0 359 357 356 354 351 348 345 343 342 341 341 341 341 342 342 343 343 343 343 344 345 347 347 348 349 351 352 354 353 350 347 342 340 339 341 343
339 347 353 357 358 358 360 358 359 358 358 358 358 357 356 356 355 353 350 347 345 343 343 343 342 343 343 344 344 345 345 345 346 347 349 349 350 352 353 355 356 356 355 351 346 341 335 332 330
322 334 342 347 351 352 353 350 353 354 354 355 355 355 355 355 354 354 352 349 346 345 344 344 344 344 345 346 346 346 346 347 348 349 351 352 352 354 355 357 358 359 359 356 352 346 337 330 323
Height
5883 5883 5884 5886 5887 5888 5887 5887 5887 5887 5887 5886 5886 5886 5885 5885 5885 5887 5884 5881 5880 5879 5878 5876 5874 5872 5870 5868 5865 5863 5861 5858 5856 5853 5851 5848 5846 5844 5842 5840 5838 5837 5835 5834 5833 5832 5831 5830 5830
5884 5884 5886 5887 5887 5887 5888 5887 5887 5887 5887 5887 5886 5886 5886 5885 5884 5883 5882 5880 5879 5877 5876 5874 5871 5869 5866 5864 5861 5858 5855 5852 5850 5847 5844 5841 5838 5836 5833 5831 5829 5827 5826 5824 5823 5822 5821 5821 5821
5886 5887 5888 5888 5888 5889 5889 5888 5888 5888 5888 5888 5888 5887 5886 5885 5884 5883 5881 5879 5877 5875 5873 5870 5867 5865 5862 5859 5855 5852 5849 5846 5842 5839 5836 5833 5829 5826 5823 5821 5818 5816 5814 5813 5811 5811 5810 5810 5810
5889 5890 5890 5890 5890 5890 5890 5890 5889 5889 5889 5889 5888 5887 5886 5885 5883 5881 5878 5876 5874 5871 5869 5866 5863 5860 5857 5853 5849 5846 5842 5838 5834 5830 5826 5823 5819 5816 5812 5809 5806 5803 5801 5799 5798 5797 5796 5796 5796
5892 5892 5892 5892 5891 5891 5891 5891 5890 5890 5890 5889 5888 5886 5885 5883 5880 5878 5875 5873 5870 5867 5864 5861 5858 5854 5851 5847 5843 5838 5834 5829 5825 5820 5815 5811 5807 5803 5799 5795 5792 5789 5786 5784 5782 5781 5780 5780 5780
5895 5895 5895 5894 5893 5893 5892 5892 5891 5890 5889 5888 5886 5885 5883 5880 5878 5875 5872 5869 5866 5863 5860 5856 5853 5849 5844 5840 5835 5831 5826 5820 5815 5810 5804 5799 5794 5788 5784 5779 5775 5772 5768 5765 5763 5761 5761 5761 5761
5897 5897 5896 5896 5895 5894 5894 5892 5891 5890 5888 5887 5884 5882 5880 5878 5875 5872 5869 5866 5862 5859 5855 5851 5847 5842 5838 5833 5827 5822 5816 5810 5804 5798 5792 5786 5780 5774 5768 5762 5757 5752 5748 5745 5742 5740 5739 5738 5739
5898 5899 5897 5896 5896 5895 5893 5891 5890 5888 5887 5885 5882 5880 5878 5875 5872 5868 5865 5861 5857 5854 5849 5844 5839 5834 5829 5823 5817 5811 5804 5798 5792 5785 5778 5771 5764 5757 5750 5744 5737 5731 5726 5722 5718 5716 5714 5714 5714
5899 5900 5898 5897 5895 5894 5892 5890 5888 5886 5884 5882 5880 5878 5875 5872 5868 5865 5861 5857 5852 5847 5842 5837 5831 5825 5819 5813 5806 5799 5793 5786 5778 5771 5763 5755 5747 5739 5731 5722 5715 5707 5700 5695 5690 5687 5685 5685 5685
5900 5899 5897 5895 5894 5892 5890 5888 5886 5884 5882 5879 5877 5874 5871 5868 5864 5861 5856 5852 5847 5841 5836 5830 5824 5817 5810 5803 5796 5788 5780 5772 5764 5756 5747 5737 5728 5718 5708 5699 5689 5681 5672 5665 5660 5655 5653 5652 5653
5898 5897 5895 5893 5892 5890 5888 5886 5883 5881 5879 5877 5874 5871 5868 5864 5860 5856 5851 5846 5841 5835 5829 5822 5815 5808 5801 5793 5785 5777 5768 5759 5750 5739 5729 5719 5708 5697 5685 5673 5662 5652 5643 5634 5628 5622 5618 5616 5616
5897 5895 5893 5891 5889 5887 5885 5883 5881 5878 5876 5873 5870 5867 5864 5860 5856 5851 5846 5840 5834 5828 5821 5814 5807 5799 5792 5784 5775 5766 5756 5746 5735 5724 5712 5699 5686 5673 5659 5646 5633 5622 5612 5603 5595 5589 5585 5581 5579
5895 5893 5891 5888 5886 5884 5882 5880 5878 5875 5873 5869 5866 5863 5859 5855 5851 5846 5840 5834 5828 5821 5814 5806 5799 5791 5782 5773 5764 5754 5743 5731 5719 5707 5693 5678 5664 5649 5634 5619 5606 5593 5583 5573 5565 5558 5553 5549 5547
5893 5891 5888 5886 5884 5882 5879 5877 5875 5872 5869 5866 5862 5859 5855 5850 5845 5840 5834 5827 5820 5813 5806 5798 5790 5782 5773 5763 5752 5741 5728 5715 5702 5688 5672 5656 5640 5624 5608 5593 5579 5567 5555 5545 5536 5528 5522 5518 5515
5890 5889 5886 5884 5881 5879 5877 5875 5872 5869 5865 5862 5858 5854 5850 5845 5840 5834 5827 5821 5813 5806 5799 5791 5782 5772 5762 5751 5739 5727 5714 5700 5685 5669 5652 5634 5616 5599 5583 5568 5554 5541 5529 5518 5508 5499 5493 5488 5485
5889 5887 5884 5882 5879 5877 5876 5873 5869 5865 5862 5858 5854 5850 5845 5840 5834 5827 5821 5814 5807 5799 5791 5782 5772 5762 5751 5739 5726 5712 5698 5683 5667 5649 5631 5611 5593 5576 5560 5545 5531 5517 5504 5492 5481 5472 5465 5460 5457
5887 5885 5882 5880 5877 5874 5872 5869 5866 5862 5858 5854 5850 5845 5840 5834 5828 5822 5815 5808 5800 5792 5783 5773 5763 5751 5739 5726 5712 5698 5683 5666 5648 5628 5608 5589 5571 5555 5539 5524 5509 5494 5480 5467 5456 5446 5439 5434 5431
5886 5883 5880 5878 5875 5872 5869 5866 5863 5858 5854 5850 5845 5840 5835 5829 5823 5816 5809 5801 5793 5784 5774 5764 5752 5740 5727 5713 5699 5683 5666 5648 5628 5608 5588 5569 5553 5536 5520 5505 5489 5473 5459 5445 5431 5420 5411 5404 5401
5884 5882 5879 5876 5873 5870 5866 5863 5859 5855 5851 5846 5841 5836 5830 5824 5817 5810 5802 5794 5785 5775 5765 5754 5742 5730 5716 5702 5686 5670 5651 5631 5611 5590 5570 5552 5535 5519 5503 5486 5470 5454 5438 5421 5404 5390 5379 5372 5367
5883 5880 5877 5875 5871 5868 5864 5861 5857 5852 5848 5843 5837 5832 5825 5818 5811 5804 5795 5786 5777 5767 5756 5745 5732 5719 5705 5690 5674 5656 5637 5617 5595 5574 5554 5536 5520 5503 5486 5469 5452 5434 5416 5397 5377 5361 5349 5340 5333
5881 5879 5876 5873 5870 5866 5863 5859 5855 5850 5845 5840 5834 5827 5820 5813 5805 5797 5788 5778 5769 5758 5747 5735 5722 5709 5694 5678 5661 5642 5622 5600 5580 5560 5541 5523 5506 5488 5471 5453 5435 5415 5394 5374 5357 5340 5325 5314 5308
5880 5878 5874 5871 5868 5865 5862 5858 5852 5847 5842 5836 5830 5823 5815 5807 5799 5790 5781 5771 5761 5750 5738 5726 5712 5698 5683 5667 5649 5630 5609 5588 5568 5548 5529 5511 5493 5475 5457 5439 5420 5399 5377 5358 5341 5324 5308 5295 5286
5880 5876 5873 5870 5866 5863 5859 5855 5851 5845 5839 5833 5826 5818 5810 5802 5793 5783 5774 5764 5753 5741 5729 5716 5702 5688 5672 5655 5637 5617 5596 5576 5556 5537 5519 5501 5482 5464 5445 5427 5407 5385 5365 5347 5330 5314 5299 5284 5273
5879 5876 5873 5870 5866 5862 5858 5853 5848 5842 5836 5829 5822 5814 5805 5796 5787 5777 5767 5756 5745 5733 5720 5707 5692 5677 5661 5644 5625 5605 5584 5564 5545 5527 5509 5492 5473 5455 5436 5417 5396 5375 5356 5339 5324 5309 5295 5281 5270
5879 5877 5874 5869 5865 5861 5856 5851 5847 5840 5833 5826 5818 5810 5800 5791 5781 5771 5760 5749 5737 5725 5712 5698 5683 5667 5650 5633 5614 5594 5574 5554 5536 5519 5501 5483 5466 5448 5429 5410 5389 5368 5349 5333 5320 5307 5295 5283 5273
5878 5875 5872 5868 5863 5860 5854 5848 5844 5837 5829 5822 5814 5805 5796 5786 5775 5765 5753 5741 5729 5717 5703 5689 5674 5658 5641 5623 5604 5585 5565 5546 5528 5510 5493 5475 5458 5440 5422 5402 5382 5362 5344 5329 5317 5306 5295 5286 5278
5876 5873 5870 5866 5861 5857 5852 5847 5840 5833 5826 5818 5810 5801 5791 5781 5770 5759 5747 5734 5722 5709 5695 5681 5665 5649 5632 5615 5596 5576 5557 5539 5521 5503 5486 5468 5451 5434 5415 5396 5377 5358 5340 5326 5314 5304 5296 5288 5281
5875 5871 5868 5863 5858 5853 5849 5843 5837 5829 5823 5815 5806 5797 5787 5776 5765 5753 5740 5728 5715 5702 5688 5673 5658 5642 5625 5607 5589 5570 5551 5532 5515 5498 5480 5462 5445 5428 5411 5393 5374 5355 5337 5323 5311 5302 5295 5288 5282
5872 5868 5864 5859 5854 5849 5844 5841 5834 5827 5819 5811 5802 5793 5782 5771 5760 5747 5735 5721 5708 5695 5681 5666 5651 5635 5618 5601 5582 5563 5545 5527 5510 5493 5475 5458 5442 5425 5408 5390 5372 5354 5336 5321 5309 5300 5292 5286 5281
5868 5865 5861 5858 5853 5847 5841 5839 5830 5823 5815 5807 5798 5789 5778 5767 5755 5742 5729 5716 5702 5689 5675 5660 5645 5629 5612 5594 5577 5558 5540 5523 5506 5489 5472 5455 5439 5422 5405 5388 5370 5352 5335 5320 5308 5298 5290 5284 5279